Terminal Aerodrome Forecast
Issued by NWS

Home | Current Version | Previous Version | Text Only | Print | Product List | Glossary On
Versions: 1 2 3 4 5 6 7 8 9 10 11 12 13 14 15 16 17 18 19 20 21 22 23 24 25 26 27 28 29 30 31 32 33 34 35 36 37 38 39 40 41 42 43 44 45 46 47 48 49 50
000
FTUS43 KMKX 131720
TAFENW
TAF
KENW 131720Z 1318/1418 31011KT P6SM SKC
     FM132200 31007KT P6SM SKC
     FM140300 VRB03KT P6SM FEW250
     FM141300 17008KT P6SM OVC150
     FM141500 16011KT P6SM -SN OVC060=

USA.gov is the U.S. government's official web portal to all federal, state and local government web resources and services.